TimePST,TemperatureF,Dew PointF,Humidity,Sea Level PressureIn,VisibilityMPH,Wind Direction,Wind SpeedMPH,Gust SpeedMPH,PrecipitationIn,Events,Conditions,WindDirDegrees,DateUTC
12:32 AM,55.4,48.2,77,29.56,10.0,South,11.5,21.9,0.01,Rain,Light Rain,170,2013-11-19 08:32:00
12:53 AM,55.0,50.0,83,29.57,10.0,South,10.4,23.0,0.01,Rain,Light Rain,180,2013-11-19 08:53:00
1:02 AM,55.4,50.0,82,29.57,10.0,South,12.7,19.6,0.00,,Overcast,190,2013-11-19 09:02:00
1:53 AM,55.0,50.0,83,29.58,10.0,South,11.5,20.7,0.00,,Overcast,180,2013-11-19 09:53:00
2:06 AM,55.4,50.0,82,29.59,10.0,South,12.7,19.6,N/A,,Overcast,190,2013-11-19 10:06:00
2:17 AM,55.4,50.0,82,29.59,10.0,SSW,9.2,21.9,N/A,,Overcast,200,2013-11-19 10:17:00
2:38 AM,55.4,50.0,82,29.59,10.0,South,13.8,19.6,0.00,Rain,Light Rain,180,2013-11-19 10:38:00
2:53 AM,55.0,50.0,83,29.60,6.0,South,12.7,25.3,0.00,,Overcast,190,2013-11-19 10:53:00
3:53 AM,50.0,44.1,80,29.63,10.0,NNW,5.8,-,N/A,,Overcast,340,2013-11-19 11:53:00
4:08 AM,50.0,44.6,82,29.65,10.0,North,6.9,-,N/A,,Overcast,10,2013-11-19 12:08:00
4:53 AM,48.0,43.0,83,29.69,8.0,Variable,5.8,-,0.01,Rain,Light Rain,0,2013-11-19 12:53:00
5:53 AM,46.9,43.0,86,29.71,5.0,East,3.5,-,0.01,Rain,Light Rain,90,2013-11-19 13:53:00
6:53 AM,46.0,42.1,86,29.75,5.0,Variable,4.6,-,0.02,Rain,Light Rain,0,2013-11-19 14:53:00
7:53 AM,46.0,41.0,83,29.78,10.0,NE,5.8,-,0.02,,Overcast,40,2013-11-19 15:53:00
8:53 AM,46.0,39.0,76,29.80,10.0,Variable,3.5,-,0.00,Rain,Light Rain,0,2013-11-19 16:53:00
9:53 AM,46.0,37.9,73,29.82,10.0,Variable,3.5,-,0.01,,Overcast,0,2013-11-19 17:53:00
10:53 AM,46.0,39.9,79,29.84,10.0,ENE,5.8,-,0.00,Rain,Light Rain,70,2013-11-19 18:53:00
11:53 AM,45.0,37.9,76,29.86,8.0,NW,6.9,-,0.01,Rain,Light Rain,320,2013-11-19 19:53:00
12:48 PM,44.6,37.4,76,29.87,10.0,North,4.6,-,0.02,Rain,Light Rain,350,2013-11-19 20:48:00
12:53 PM,45.0,37.0,74,29.87,10.0,North,4.6,-,0.02,Rain,Light Rain,360,2013-11-19 20:53:00
1:53 PM,46.9,36.0,66,29.87,10.0,Calm,Calm,-,0.00,,Overcast,0,2013-11-19 21:53:00
2:53 PM,46.9,36.0,66,29.87,10.0,North,3.5,-,N/A,,Overcast,10,2013-11-19 22:53:00
3:53 PM,46.9,35.1,63,29.88,10.0,Calm,Calm,-,N/A,,Overcast,0,2013-11-19 23:53:00
4:53 PM,46.0,32.0,58,29.89,10.0,North,3.5,-,N/A,,Overcast,10,2013-11-20 00:53:00
5:53 PM,45.0,25.0,46,29.91,10.0,Variable,3.5,-,N/A,,Overcast,0,2013-11-20 01:53:00
6:53 PM,44.1,21.9,42,29.92,10.0,Calm,Calm,-,N/A,,Overcast,0,2013-11-20 02:53:00
7:53 PM,44.1,21.0,40,29.94,10.0,North,3.5,-,N/A,,Mostly Cloudy,350,2013-11-20 03:53:00
8:53 PM,43.0,19.9,40,29.97,10.0,North,6.9,-,N/A,,Overcast,350,2013-11-20 04:53:00
9:53 PM,43.0,21.0,42,30.01,10.0,North,9.2,-,N/A,,Overcast,360,2013-11-20 05:53:00
10:53 PM,43.0,21.0,42,30.04,10.0,North,4.6,-,N/A,,Overcast,360,2013-11-20 06:53:00
11:53 PM,41.0,21.9,47,30.08,10.0,North,5.8,-,N/A,,Scattered Clouds,360,2013-11-20 07:53:00